
SB KEPS @ AMSAT $ORB06292.O Orbital Elements 06292.OSCAR
HR AMSAT ORBITAL ELEMENTS FOR OSCAR SATELLITES FROM WA5QGD FORT WORTH,TX October 19, 2006 Send SUBSCRIBE KEPS/UNSUBSCRIBE KEPS to m[email protected] only BID: ORB06292.O TO ALL RADIO AMATEURS BT
Satellite: AO-07 Catalog number: 07530 Epoch time: 06291.72697165 Element set: 707 Inclination: 101.5540 deg RA of node: 331.5071 deg Eccentricity: 0.0011928 Arg of perigee: 006.6540 deg Mean anomaly: 353.4684 deg Mean motion: 12.53571567 rev/day Decay rate: -2.8e-07 rev/day^2 Epoch rev: 46086 Checksum: 296
Satellite: UO-11 Catalog number: 14781 Epoch time: 06292.62956674 Element set: 203 Inclination: 098.2072 deg RA of node: 305.4905 deg Eccentricity: 0.0008456 Arg of perigee: 221.2118 deg Mean anomaly: 138.8421 deg Mean motion: 14.79472381 rev/day Decay rate: 2.83e-06 rev/day^2 Epoch rev: 21416 Checksum: 296
Satellite: RS-10/11 Catalog number: 18129 Epoch time: 06291.94533494 Element set: 0121 Inclination: 082.9219 deg RA of node: 236.5940 deg Eccentricity: 0.0013093 Arg of perigee: 104.7353 deg Mean anomaly: 255.5253 deg Mean motion: 13.72779758 rev/day Decay rate: 5.7e-07 rev/day^2 Epoch rev: 96813 Checksum: 319
Satellite: RS-15 Catalog number: 23439 Epoch time: 06291.82971417 Element set: 0029 Inclination: 064.8205 deg RA of node: 037.2522 deg Eccentricity: 0.0166092 Arg of perigee: 232.6527 deg Mean anomaly: 125.9166 deg Mean motion: 11.27551705 rev/day Decay rate: -3.9e-07 rev/day^2 Epoch rev: 48648 Checksum: 310
Satellite: FO-29 Catalog number: 24278 Epoch time: 06291.96846145 Element set: 0343 Inclination: 098.5205 deg RA of node: 279.4163 deg Eccentricity: 0.0350945 Arg of perigee: 348.7909 deg Mean anomaly: 010.5560 deg Mean motion: 13.52924088 rev/day Decay rate: -6.9e-07 rev/day^2 Epoch rev: 50228 Checksum: 335
Satellite: SO-33 Catalog number: 25509 Epoch time: 06291.89462994 Element set: 770 Inclination: 031.4285 deg RA of node: 149.9341 deg Eccentricity: 0.0354722 Arg of perigee: 117.9229 deg Mean anomaly: 245.7782 deg Mean motion: 14.28127984 rev/day Decay rate: 1.88e-06 rev/day^2 Epoch rev: 41673 Checksum: 347
Satellite: VO-52 Catalog number: 28650 Epoch time: 06291.61363098 Element set: 456 Inclination: 097.8609 deg RA of node: 002.3848 deg Eccentricity: 0.0026545 Arg of perigee: 322.0348 deg Mean anomaly: 037.9002 deg Mean motion: 14.81187155 rev/day Decay rate: -1.17e-06 rev/day^2 Epoch rev: 7865 Checksum: 313
/EX SB KEPS @ AMSAT $ORB06292.D Orbital Elements 06292.MICROS
HR AMSAT ORBITAL ELEMENTS FOR THE MICROSATS FROM WA5QGD FORT WORTH,TX October 19, 2006 Send SUBSCRIBE KEPS/UNSUBSCRIBE KEPS to m[email protected] only BID: ORB06292.D TO ALL RADIO AMATEURS BT
Satellite: AO-16 Catalog number: 20439 Epoch time: 06291.56808677 Element set: 0873 Inclination: 098.1905 deg RA of node: 294.5898 deg Eccentricity: 0.0010532 Arg of perigee: 182.5032 deg Mean anomaly: 177.6094 deg Mean motion: 14.31736079 rev/day Decay rate: 6.0e-08 rev/day^2 Epoch rev: 87397 Checksum: 344
Satellite: LO-19 Catalog number: 20442 Epoch time: 06292.62543354 Element set: 806 Inclination: 098.1872 deg RA of node: 305.1093 deg Eccentricity: 0.0011798 Arg of perigee: 178.9000 deg Mean anomaly: 181.2223 deg Mean motion: 14.31978544 rev/day Decay rate: 3.7e-07 rev/day^2 Epoch rev: 87426 Checksum: 307
Satellite: AO-27 Catalog number: 22825 Epoch time: 06291.52533372 Element set: 522 Inclination: 098.2984 deg RA of node: 267.3907 deg Eccentricity: 0.0007535 Arg of perigee: 258.8748 deg Mean anomaly: 101.1603 deg Mean motion: 14.29187320 rev/day Decay rate: 1.77e-06 rev/day^2 Epoch rev: 68097 Checksum: 325
Satellite: IO-26 Catalog number: 22826 Epoch time: 06292.87406749 Element set: 215 Inclination: 098.2936 deg RA of node: 269.8420 deg Eccentricity: 0.0008066 Arg of perigee: 249.9786 deg Mean anomaly: 110.0533 deg Mean motion: 14.29431216 rev/day Decay rate: 2.7e-07 rev/day^2 Epoch rev: 68124 Checksum: 320
Satellite: PO-28 Catalog number: 22829 Epoch time: 06291.96780260 Element set: 0500 Inclination: 098.2825 deg RA of node: 270.1745 deg Eccentricity: 0.0009104 Arg of perigee: 224.1419 deg Mean anomaly: 135.9049 deg Mean motion: 14.30127684 rev/day Decay rate: 1.09e-06 rev/day^2 Epoch rev: 68133 Checksum: 299
Satellite: GO-32 Catalog number: 25397 Epoch time: 06291.79214328 Element set: 0138 Inclination: 098.4534 deg RA of node: 344.1049 deg Eccentricity: 0.0001042 Arg of perigee: 172.0572 deg Mean anomaly: 188.0605 deg Mean motion: 14.23111618 rev/day Decay rate: -1.73e-06 rev/day^2 Epoch rev: 42982 Checksum: 289
Satellite: MO-46 Catalog number: 26548 Epoch time: 06291.85162781 Element set: 624 Inclination: 064.5568 deg RA of node: 209.2264 deg Eccentricity: 0.0040907 Arg of perigee: 229.6864 deg Mean anomaly: 130.0668 deg Mean motion: 14.83033538 rev/day Decay rate: 9.0e-08 rev/day^2 Epoch rev: 32774 Checksum: 325
Satellite: NO-44 Catalog number: 26931 Epoch time: 06291.84311134 Element set: 427 Inclination: 067.0527 deg RA of node: 049.1634 deg Eccentricity: 0.0004888 Arg of perigee: 257.7537 deg Mean anomaly: 102.3021 deg Mean motion: 14.29456913 rev/day Decay rate: 1.82e-06 rev/day^2 Epoch rev: 26360 Checksum: 294
Satellite: SO-50 Catalog number: 27607 Epoch time: 06291.54358461 Element set: 148 Inclination: 064.5574 deg RA of node: 098.6329 deg Eccentricity: 0.0034965 Arg of perigee: 094.3536 deg Mean anomaly: 266.1549 deg Mean motion: 14.71182408 rev/day Decay rate: -4.8e-07 rev/day^2 Epoch rev: 20557 Checksum: 331
Satellite: CO-55 Catalog number: 27844 Epoch time: 06291.57294470 Element set: 0875 Inclination: 098.7225 deg RA of node: 298.1741 deg Eccentricity: 0.0010669 Arg of perigee: 069.0902 deg Mean anomaly: 291.1422 deg Mean motion: 14.20463202 rev/day Decay rate: 2.8e-07 rev/day^2 Epoch rev: 17117 Checksum: 307
Satellite: CO-57 Catalog number: 27848 Epoch time: 06291.56324035 Element set: 0839 Inclination: 098.7209 deg RA of node: 297.4552 deg Eccentricity: 0.0010586 Arg of perigee: 070.9576 deg Mean anomaly: 289.2768 deg Mean motion: 14.20289154 rev/day Decay rate: 3.6e-07 rev/day^2 Epoch rev: 17115 Checksum: 343
Satellite: AO-51 Catalog number: 28375 Epoch time: 06292.68699807 Element set: 655 Inclination: 098.1495 deg RA of node: 338.9542 deg Eccentricity: 0.0083293 Arg of perigee: 190.5311 deg Mean anomaly: 169.4136 deg Mean motion: 14.40537360 rev/day Decay rate: 2.5e-07 rev/day^2 Epoch rev: 12108 Checksum: 327
Satellite: CO-56 Catalog number: 28941 Epoch time: 06291.89250795 Element set: 229 Inclination: 098.1686 deg RA of node: 322.6007 deg Eccentricity: 0.0265571 Arg of perigee: 041.1013 deg Mean anomaly: 320.9922 deg Mean motion: 15.29157133 rev/day Decay rate: 1.7967e-04 rev/day^2 Epoch rev: 3642 Checksum: 322
/EX SB KEPS @ AMSAT $ORB06292.W Orbital Elements 06292.WEATHER
HR AMSAT ORBITAL ELEMENTS FOR WEATHER SATELLITES FROM WA5QGD FORT WORTH,TX October 19, 2006 Send SUBSCRIBE KEPS/UNSUBSCRIBE KEPS to m[email protected] only BID: ORB06292.W TO ALL RADIO AMATEURS BT
Satellite: NOAA-10 Catalog number: 16969 Epoch time: 06292.43530807 Element set: 388 Inclination: 098.7595 deg RA of node: 304.3327 deg Eccentricity: 0.0012739 Arg of perigee: 145.8610 deg Mean anomaly: 214.3398 deg Mean motion: 14.27305982 rev/day Decay rate: -2.6e-07 rev/day^2 Epoch rev: 4488 Checksum: 327
Satellite: NOAA-11 Catalog number: 19531 Epoch time: 06292.40362551 Element set: 336 Inclination: 098.8238 deg RA of node: 019.4561 deg Eccentricity: 0.0011565 Arg of perigee: 000.1135 deg Mean anomaly: 000.0047 deg Mean motion: 14.14820114 rev/day Decay rate: -1.87e-06 rev/day^2 Epoch rev: 93210 Checksum: 249
Satellite: NOAA-12 Catalog number: 21263 Epoch time: 06292.41297974 Element set: 830 Inclination: 098.7416 deg RA of node: 285.2346 deg Eccentricity: 0.0013613 Arg of perigee: 086.7429 deg Mean anomaly: 273.5314 deg Mean motion: 14.25510538 rev/day Decay rate: -3.4e-07 rev/day^2 Epoch rev: 80194 Checksum: 305
Satellite: MET-3/5 Catalog number: 21655 Epoch time: 06292.80446712 Element set: 173 Inclination: 082.5558 deg RA of node: 172.7669 deg Eccentricity: 0.0014180 Arg of perigee: 087.2119 deg Mean anomaly: 273.0625 deg Mean motion: 13.17007661 rev/day Decay rate: 5.1e-07 rev/day^2 Epoch rev: 72976 Checksum: 307
Satellite: MET-2/21 Catalog number: 22782 Epoch time: 06292.84875793 Element set: 645 Inclination: 082.5473 deg RA of node: 232.5450 deg Eccentricity: 0.0021830 Arg of perigee: 186.4805 deg Mean anomaly: 173.6073 deg Mean motion: 13.83609700 rev/day Decay rate: -6.0e-08 rev/day^2 Epoch rev: 66328 Checksum: 315
Satellite: OKEAN-4 Catalog number: 23317 Epoch time: 06291.74401118 Element set: 80 Inclination: 082.5403 deg RA of node: 161.7729 deg Eccentricity: 0.0021886 Arg of perigee: 332.1542 deg Mean anomaly: 027.8501 deg Mean motion: 14.82409793 rev/day Decay rate: 5.0e-07 rev/day^2 Epoch rev: 64828 Checksum: 286
Satellite: NOAA-14 Catalog number: 23455 Epoch time: 06292.22968857 Element set: 329 Inclination: 099.0249 deg RA of node: 351.7406 deg Eccentricity: 0.0009914 Arg of perigee: 063.7666 deg Mean anomaly: 296.4554 deg Mean motion: 14.13671160 rev/day Decay rate: 1.67e-06 rev/day^2 Epoch rev: 60859 Checksum: 337
Satellite: SICH-1 Catalog number: 23657 Epoch time: 06292.70012173 Element set: 883 Inclination: 082.5261 deg RA of node: 301.7775 deg Eccentricity: 0.0022882 Arg of perigee: 317.1242 deg Mean anomaly: 042.8178 deg Mean motion: 14.81401259 rev/day Decay rate: 2.73e-06 rev/day^2 Epoch rev: 60042 Checksum: 278
Satellite: NOAA-15 Catalog number: 25338 Epoch time: 06292.41033541 Element set: 708 Inclination: 098.5229 deg RA of node: 291.0330 deg Eccentricity: 0.0010956 Arg of perigee: 016.3916 deg Mean anomaly: 343.7652 deg Mean motion: 14.24606913 rev/day Decay rate: 1.7e-07 rev/day^2 Epoch rev: 43840 Checksum: 286
